Dauntless Aviation
Airports North America United States Wyoming
KPOY
POY
POY

POWELL MUNI AIRPORT

POWELL, WY, USA

Airport Info
Suggest Updated Information for this Airport

Location

Latitude / Longitude: 44°52'1"N / 108°47'36"W
  44°52.03'N / 108°47.605'W
  44.8672 / -108.7934
Elevation: 5095.7 ft. (surveyed)
Variation: 11E (2015)
From city: 07 miles N of POWELL, WY

Operations

Facility use: Open to the public
Sectional chart: BILLINGS
Control tower: no
Boundary ARTCC: SALT LAKE CITY
Responsible ARTCC: SALT LAKE CITY
FSS: CASPER [1-800-WX-BRIEF]
NOTAMs facility: CPR (NOTAM-D service available)
Segmented circle: yes
Lights: SEE RMK
Beacon: CLEAR-GREEN (LIGHTED LAND AIRPORT)
Landing fee: no

Communications

UNICOM: 122.700
CTAF: 122.700

Nearby radio navigation aids

VOR radial/distance VOR name Freq Var
COD 26oT/16.5 CODY VOR/DME 111.80 14E
 
NDB name Hdg/Dist Freq Var ID
POWELL at field 344 15E POY
COWLEY 259oT/15.2 257 14E HCY
RED LODGE 138oT/30.0 203 17E RED
GREYBULL 305oT/37.1 275 14E GEY

Services

Fuel available: 100LLA
Airframe service: NONE
Powerplant service: NONE
Bottled oxygen: NONE
Bulk oxygen: NONE

Runway Information

Runway 17/35

Dimensions: 2709 x 100 ft.
Surface: GRASS; SOD,NATURAL SOIL,FAIR CONDITION,NO SPECIAL SURFACE TREATMENT
 
Runway 17
Runway 35
Latitude: 44-52-09.4620N 44-51-42.7219N
Longitude: 108-47-38.6757W 108-47-38.7046W
Elevation: 5037.6 ft. 5057.8 ft.
Traffic pattern: left left
Runway true heading: 180 000
Markings: , in fair condition , in fair condition
 

Runway 03/21

Dimensions: 2623 x 100 ft.
Surface: GRASS; SOD,NATURAL SOIL,FAIR CONDITION,NO SPECIAL SURFACE TREATMENT
 
Runway 03
Runway 21
Latitude: 44-51-42.3945N 44-52-01.0070N
Longitude: 108-47-55.9551W 108-47-30.6478W
Elevation: 5037.0 ft. 5055.0 ft.
Runway true heading: 044 224
Markings: , in fair condition , in fair condition
 

Runway 13/31

Dimensions: 6200 x 100 ft.
Surface: ASPHALT OR BITUMINOUS CONCRETE,GOOD CONDITION,NO SPECIAL SURFACE TREATMENT
Edge lights: MEDIUM
 
Runway 13
Runway 31
Latitude: 44-52-33.5996N 44-51-43.6254N
Longitude: 108-47-57.1042W 108-47-07.4266W
Elevation: 4997.2 ft. 5095.7 ft.
Traffic pattern: left left
Runway true heading: 145 325
Markings: nonprecision instrument, in good condition nonprecision instrument, in good condition
Visual slope indicator: 2-LGT PAPI ON LEFT SIDE OF RUNWAY (3.00 degrees glide path) 2-LGT PAPI ON LEFT SIDE OF RUNWAY (3.00 degrees glide path)
Runway end identifier lights: yes
 

Operational Statistics

Annual operations: 3385
Air taxi: 100
Local: 1985
Itinerant: 1300

Additional Remarks

  • AFTER HOURS EMERGENCY CONTACT POLICE DEPT. 307-754-2212

Instrument Procedures

Effective May 21, 2020 to Jun 17, 2020

IAPs (Instrument Approach Procedures)

   RNAV (GPS) RWY 13 (PDF)
   RNAV (GPS) RWY 31 (PDF)
   NDB RWY 31 (PDF)
   TAKEOFF MINIMUMS (PDF)
 
    Legends & General Information
    Airport Diagram Legend
Topographic chart at:
Satellite photo at:
Airport distance calculator
From:
Weather Reports

METAR

KPOY

KPOY 281915Z AUTO 26005KT 10SM CLR 18/02 A3027 RMK AO2
KU68
14.9nm NE
KU68 281915Z AUTO 00000KT 10SM CLR 21/05 A3025 RMK AO2
KCOD
23.1nm S
KCOD 281856Z AUTO VRB05KT 10SM CLR 17/06 A3030 RMK AO2 SLP239 T01720056
KGEY
36.9nm E
KGEY 281919Z AUTO 27006KT 6SM HZ FEW002 22/06 A3022 RMK AO2 T02220056

TAF

KCOD
23.1nm S
KCOD 281731Z 2818/2918 03008G15KT P6SM SCT090 FM282300 03008KT P6SM BKN090 FM290400 35006KT P6SM SCT120 FM291700 03008KT P6SM BKN120
Safelog

 

Dauntless Aviation

© 2007-2020 Dauntless Aviation, all rights reserved
Information provided via PilotNav comes from a variety of official and unofficial data sources. As errors are possible, do not use PilotNav for primary flight planning purposes. Verify any information that you receive via PilotNav with current and canonical charts and other official documents. The material in this database is subject to database copyrights held by Dauntless Aviation and may not be copied without the express permission of Dauntless Aviation - licenses for use of part of all of this data are available for purchase; enquire via the Dauntless Aviation helpdesk. A number of mechanisms and markers exist in the database to protect against and identify infringement / copyright. Automated queries against this website are stictly prohibited, and all activity is logged and analyzed.